格洛纳斯M-720 COSMOS 2433 [GLONASS-M]

导读

COSMOS 2433(又称格洛纳斯M-720)是独联体(CIS)俄罗斯发射的GLONASS-M系列导航卫星,于2007年10月26日发射入轨,隶属俄罗斯全球卫星导航系统。它运行在中地球轨道,采用三轴稳定设计,可覆盖全球服务,提供高精度定位、导航与授时服务。相比早期GLONASS卫星,该型号寿命更长、精度更高,目前仍在轨工作,是俄罗斯维持导航系统组网能力的重要节点。

基本信息
目录编号:
32275
目录名称:
COSMOS 2433 (GLONASS)
国际标识:
2007-052A
轨道中心:
EARTH
卫星名称:
格洛纳斯M-720
卫星全名:
格洛纳斯M-720 COSMOS 2433 [GLONASS-M]
卫星状态:
在轨 (已飞行6813 天)
发射日期:
2007-10-26 UTC
国别 :
俄罗斯(独联体) (CIS)
星等 :
--
轨道信息
数据来源 国际轨道数据 AOE轨道数据
星历时间 2026-06-18T15:45:41+0800
2天前
查看轨道信息
2026-06-20T02:00:00+0800
1天前
查看轨道信息
半长轴 25507.865km 25507.889km
偏心率 0.0002538 0.0002638
轨道倾角 65.576° 65.575°
近地点辐角 193.391° 194.624°
升交点赤经 315.895° 315.847°
平近点角 166.590° 179.801°
近地点 19123.254km 19123.023km
远地点 19136.202km 19136.481km
周期 675.726分钟 675.727分钟
每日圈数 2.13104 2.131037
详细信息
平衡模式:
三轴稳定
覆盖范围:
全球
运营商:
列舍特涅夫卫星信息系统
运营商所在国:
俄罗斯
制造商(研发单位):
列舍特涅夫卫星信息系统
制造商所在国:
俄罗斯
使用方式:
暂无
卫星简介
格洛纳斯(GLONASS )是苏联/俄罗斯研制卫星导航系统。标准配置为24颗卫星,其中18颗卫星就能保证该系统为俄罗斯境内用户提供全部服务。该卫星仍在工作。
2D轨道图
3D轨道图
轨道高度分析图
轨道倾角分析图
轨道综合分析图
查看轨道综合分析图